Year,Month,Day,Hour,Minute,Value (Times are PST for temperature in C)
2010,07,27,00,00,13.20
2010,07,27,00,01,13.20
2010,07,27,00,02,13.20
2010,07,27,00,03,13.20
2010,07,27,00,04,13.20
2010,07,27,00,05,13.20
2010,07,27,00,06,13.20
2010,07,27,00,07,13.20
2010,07,27,00,08,13.20
2010,07,27,00,09,13.20
2010,07,27,00,10,13.20
2010,07,27,00,11,13.20
2010,07,27,00,12,13.20
2010,07,27,00,13,13.20
2010,07,27,00,14,13.20
2010,07,27,00,15,13.20
2010,07,27,00,16,13.20
2010,07,27,00,17,13.20
2010,07,27,00,18,13.20
2010,07,27,00,19,13.20
2010,07,27,00,20,13.20
2010,07,27,00,21,13.20
2010,07,27,00,22,13.20
2010,07,27,00,23,13.20
2010,07,27,00,24,13.10
2010,07,27,00,25,13.20
2010,07,27,00,26,13.10
2010,07,27,00,27,13.10
2010,07,27,00,28,13.10
2010,07,27,00,29,13.10
2010,07,27,00,30,13.10
2010,07,27,00,31,13.10
2010,07,27,00,32,13.10
2010,07,27,00,33,13.10
2010,07,27,00,34,13.10
2010,07,27,00,35,13.00
2010,07,27,00,36,13.00
2010,07,27,00,37,13.00
2010,07,27,00,38,13.00
2010,07,27,00,39,12.90
2010,07,27,00,40,12.90
2010,07,27,00,41,12.90
2010,07,27,00,42,12.90
2010,07,27,00,43,12.80
2010,07,27,00,44,12.80
2010,07,27,00,45,12.80
2010,07,27,00,46,12.80
2010,07,27,00,47,12.70
2010,07,27,00,48,12.70
2010,07,27,00,49,12.70
2010,07,27,00,50,12.70
2010,07,27,00,51,12.60
2010,07,27,00,52,12.60
2010,07,27,00,53,12.60
2010,07,27,00,54,12.60
2010,07,27,00,55,12.50
2010,07,27,00,56,12.50
2010,07,27,00,57,12.40
2010,07,27,00,58,12.40
2010,07,27,00,59,12.30
2010,07,27,01,00,12.30
2010,07,27,01,01,12.30
2010,07,27,01,02,12.20
2010,07,27,01,03,12.20
2010,07,27,01,04,12.20
2010,07,27,01,05,12.20
2010,07,27,01,06,12.20
2010,07,27,01,07,12.20
2010,07,27,01,08,12.20
2010,07,27,01,09,12.20
2010,07,27,01,10,12.20
2010,07,27,01,11,12.20
2010,07,27,01,12,12.20
2010,07,27,01,13,12.20
2010,07,27,01,14,12.20
2010,07,27,01,15,12.20
2010,07,27,01,16,12.20
2010,07,27,01,17,12.20
2010,07,27,01,18,12.30
2010,07,27,01,19,12.30
2010,07,27,01,20,12.30
2010,07,27,01,21,12.30
2010,07,27,01,22,12.30
2010,07,27,01,23,12.30
2010,07,27,01,24,12.30
2010,07,27,01,25,12.30
2010,07,27,01,26,12.30
2010,07,27,01,27,12.40
2010,07,27,01,28,12.40
2010,07,27,01,29,12.40
2010,07,27,01,30,12.40
2010,07,27,01,31,12.40
2010,07,27,01,32,12.40
2010,07,27,01,33,12.40
2010,07,27,01,34,12.40
2010,07,27,01,35,12.40
2010,07,27,01,36,12.30
2010,07,27,01,37,12.30
2010,07,27,01,38,12.30
2010,07,27,01,39,12.30
2010,07,27,01,40,12.20
2010,07,27,01,41,12.20
2010,07,27,01,42,12.20
2010,07,27,01,43,12.20
2010,07,27,01,44,12.10
2010,07,27,01,45,12.10
2010,07,27,01,46,12.10
2010,07,27,01,47,12.10
2010,07,27,01,48,12.10
2010,07,27,01,49,12.10
2010,07,27,01,50,12.00
2010,07,27,01,51,12.00
2010,07,27,01,52,12.00
2010,07,27,01,53,11.90
2010,07,27,01,54,11.90
2010,07,27,01,55,11.90
2010,07,27,01,56,11.90
2010,07,27,01,57,11.90
2010,07,27,01,58,11.90
2010,07,27,01,59,11.90
2010,07,27,02,00,11.90
2010,07,27,02,01,11.90
2010,07,27,02,02,11.90
2010,07,27,02,03,11.80
2010,07,27,02,04,11.80
2010,07,27,02,05,11.80
2010,07,27,02,06,11.80
2010,07,27,02,07,11.80
2010,07,27,02,08,11.80
2010,07,27,02,09,11.80
2010,07,27,02,10,11.80
2010,07,27,02,11,11.80
2010,07,27,02,12,11.80
2010,07,27,02,13,11.80
2010,07,27,02,14,11.70
2010,07,27,02,15,11.70
2010,07,27,02,16,11.70
2010,07,27,02,17,11.70
2010,07,27,02,18,11.70
2010,07,27,02,19,11.70
2010,07,27,02,20,11.70
2010,07,27,02,21,11.70
2010,07,27,02,22,11.70
2010,07,27,02,23,11.70
2010,07,27,02,24,11.60
2010,07,27,02,25,11.60
2010,07,27,02,26,11.60
2010,07,27,02,27,11.60
2010,07,27,02,28,11.60
2010,07,27,02,29,11.60
2010,07,27,02,30,11.60
2010,07,27,02,31,11.60
2010,07,27,02,32,11.60
2010,07,27,02,33,11.60
2010,07,27,02,34,11.60
2010,07,27,02,35,11.60
2010,07,27,02,36,11.60
2010,07,27,02,37,11.60
2010,07,27,02,38,11.60
2010,07,27,02,39,11.60
2010,07,27,02,40,11.60
2010,07,27,02,41,11.60
2010,07,27,02,42,11.60
2010,07,27,02,43,11.60
2010,07,27,02,44,11.60
2010,07,27,02,45,11.60
2010,07,27,02,46,11.60
2010,07,27,02,47,11.60
2010,07,27,02,48,11.60
2010,07,27,02,49,11.60
2010,07,27,02,50,11.60
2010,07,27,02,51,11.60
2010,07,27,02,52,11.60
2010,07,27,02,53,11.60
2010,07,27,02,54,11.60
2010,07,27,02,55,11.60
2010,07,27,02,56,11.60
2010,07,27,02,57,11.60
2010,07,27,02,58,11.60
2010,07,27,02,59,11.60
2010,07,27,03,00,11.60
2010,07,27,03,01,11.60
2010,07,27,03,02,11.60
2010,07,27,03,03,11.60
2010,07,27,03,04,11.60
2010,07,27,03,05,11.60
2010,07,27,03,06,11.60
2010,07,27,03,07,11.60
2010,07,27,03,08,11.60
2010,07,27,03,09,11.60
2010,07,27,03,10,11.60
2010,07,27,03,11,11.60
2010,07,27,03,12,11.60
2010,07,27,03,13,11.60
2010,07,27,03,14,11.60
2010,07,27,03,15,11.60
2010,07,27,03,16,11.60
2010,07,27,03,17,11.60
2010,07,27,03,18,11.60
2010,07,27,03,19,11.60
2010,07,27,03,20,11.60
2010,07,27,03,21,11.60
2010,07,27,03,22,11.60
2010,07,27,03,23,11.60
2010,07,27,03,24,11.50
2010,07,27,03,25,11.50
2010,07,27,03,26,11.50
2010,07,27,03,27,11.50
2010,07,27,03,28,11.50
2010,07,27,03,29,11.50
2010,07,27,03,30,11.50
2010,07,27,03,31,11.50
2010,07,27,03,32,11.50
2010,07,27,03,33,11.50
2010,07,27,03,34,11.50
2010,07,27,03,35,11.50
2010,07,27,03,36,11.50
2010,07,27,03,37,11.50
2010,07,27,03,38,11.50
2010,07,27,03,39,11.40
2010,07,27,03,40,11.40
2010,07,27,03,41,11.40
2010,07,27,03,42,11.40
2010,07,27,03,43,11.40
2010,07,27,03,44,11.40
2010,07,27,03,45,11.40
2010,07,27,03,46,11.40
2010,07,27,03,47,11.40
2010,07,27,03,48,11.40
2010,07,27,03,49,11.40
2010,07,27,03,50,11.40
2010,07,27,03,51,11.40
2010,07,27,03,52,11.40
2010,07,27,03,53,11.40
2010,07,27,03,54,11.40
2010,07,27,03,55,11.40
2010,07,27,03,56,11.40
2010,07,27,03,57,11.40
2010,07,27,03,58,11.40
2010,07,27,03,59,11.40
2010,07,27,04,00,11.40
2010,07,27,04,01,11.40
2010,07,27,04,02,11.40
2010,07,27,04,03,11.40
2010,07,27,04,04,11.40
2010,07,27,04,05,11.40
2010,07,27,04,06,11.40
2010,07,27,04,07,11.40
2010,07,27,04,08,11.40
2010,07,27,04,09,11.40
2010,07,27,04,10,11.30
2010,07,27,04,11,11.30
2010,07,27,04,12,11.30
2010,07,27,04,13,11.30
2010,07,27,04,14,11.30
2010,07,27,04,15,11.30
2010,07,27,04,16,11.30
2010,07,27,04,17,11.30
2010,07,27,04,18,11.30
2010,07,27,04,19,11.30
2010,07,27,04,20,11.30
2010,07,27,04,21,11.30
2010,07,27,04,22,11.30
2010,07,27,04,23,11.30
2010,07,27,04,24,11.30
2010,07,27,04,25,11.30
2010,07,27,04,26,11.30
2010,07,27,04,27,11.30
2010,07,27,04,28,11.30
2010,07,27,04,29,11.30
2010,07,27,04,30,11.30
2010,07,27,04,31,11.30
2010,07,27,04,32,11.30
2010,07,27,04,33,11.30
2010,07,27,04,34,11.30
2010,07,27,04,35,11.30
2010,07,27,04,36,11.30
2010,07,27,04,37,11.30
2010,07,27,04,38,11.30
2010,07,27,04,39,11.30
2010,07,27,04,40,11.30
2010,07,27,04,41,11.30
2010,07,27,04,42,11.30
2010,07,27,04,43,11.30
2010,07,27,04,44,11.30
2010,07,27,04,45,11.30
2010,07,27,04,46,11.30
2010,07,27,04,47,11.30
2010,07,27,04,48,11.30
2010,07,27,04,49,11.30
2010,07,27,04,50,11.30
2010,07,27,04,51,11.30
2010,07,27,04,52,11.30
2010,07,27,04,53,11.30
2010,07,27,04,54,11.30
2010,07,27,04,55,11.30
2010,07,27,04,56,11.30
2010,07,27,04,57,11.30
2010,07,27,04,58,11.30
2010,07,27,04,59,11.30
2010,07,27,05,00,11.30
2010,07,27,05,01,11.30
2010,07,27,05,02,11.30
2010,07,27,05,03,11.30
2010,07,27,05,04,11.30
2010,07,27,05,05,11.30
2010,07,27,05,06,11.30
2010,07,27,05,07,11.30
2010,07,27,05,08,11.30
2010,07,27,05,09,11.30
2010,07,27,05,10,11.30
2010,07,27,05,11,11.20
2010,07,27,05,12,11.20
2010,07,27,05,13,11.20
2010,07,27,05,14,11.20
2010,07,27,05,15,11.20
2010,07,27,05,16,11.20
2010,07,27,05,17,11.20
2010,07,27,05,18,11.20
2010,07,27,05,19,11.20
2010,07,27,05,20,11.20
2010,07,27,05,21,11.20
2010,07,27,05,22,11.10
2010,07,27,05,23,11.10
2010,07,27,05,24,11.10
2010,07,27,05,25,11.10
2010,07,27,05,26,11.10
2010,07,27,05,27,11.10
2010,07,27,05,28,11.10
2010,07,27,05,29,11.10
2010,07,27,05,30,11.10
2010,07,27,05,31,11.10
2010,07,27,05,32,11.10
2010,07,27,05,33,11.10
2010,07,27,05,34,11.10
2010,07,27,05,35,11.10
2010,07,27,05,36,11.10
2010,07,27,05,37,11.00
2010,07,27,05,38,11.10
2010,07,27,05,39,11.00
2010,07,27,05,40,11.00
2010,07,27,05,41,11.00
2010,07,27,05,42,11.00
2010,07,27,05,43,11.00
2010,07,27,05,44,11.00
2010,07,27,05,45,11.00
2010,07,27,05,46,11.00
2010,07,27,05,47,11.00
2010,07,27,05,48,11.00
2010,07,27,05,49,11.00
2010,07,27,05,50,11.00
2010,07,27,05,51,11.00
2010,07,27,05,52,11.00
2010,07,27,05,53,11.00
2010,07,27,05,54,11.00
2010,07,27,05,55,11.00
2010,07,27,05,56,11.00
2010,07,27,05,57,10.90
2010,07,27,05,58,10.90
2010,07,27,05,59,10.90
2010,07,27,06,00,11.00
2010,07,27,06,01,11.00
2010,07,27,06,02,11.00
2010,07,27,06,03,10.90
2010,07,27,06,04,11.00
2010,07,27,06,05,10.90
2010,07,27,06,06,10.90
2010,07,27,06,07,10.90
2010,07,27,06,08,11.00
2010,07,27,06,09,11.00
2010,07,27,06,10,11.00
2010,07,27,06,11,11.00
2010,07,27,06,12,10.90
2010,07,27,06,13,10.90
2010,07,27,06,14,10.90
2010,07,27,06,15,10.90
2010,07,27,06,16,10.90
2010,07,27,06,17,10.90
2010,07,27,06,18,10.90
2010,07,27,06,19,10.90
2010,07,27,06,20,10.90
2010,07,27,06,21,10.90
2010,07,27,06,22,10.90
2010,07,27,06,23,11.00
2010,07,27,06,24,11.00
2010,07,27,06,25,11.00
2010,07,27,06,26,11.00
2010,07,27,06,27,11.00
2010,07,27,06,28,11.00
2010,07,27,06,29,11.10
2010,07,27,06,30,11.10
2010,07,27,06,31,11.10
2010,07,27,06,32,11.10
2010,07,27,06,33,11.10
2010,07,27,06,34,11.10
2010,07,27,06,35,11.10
2010,07,27,06,36,11.10
2010,07,27,06,37,11.20
2010,07,27,06,38,11.20
2010,07,27,06,39,11.20
2010,07,27,06,40,11.30
2010,07,27,06,41,11.30
2010,07,27,06,42,11.30
2010,07,27,06,43,11.30
2010,07,27,06,44,11.40
2010,07,27,06,45,11.40
2010,07,27,06,46,11.50
2010,07,27,06,47,11.50
2010,07,27,06,48,11.50
2010,07,27,06,49,11.60
2010,07,27,06,50,11.60
2010,07,27,06,51,11.60
2010,07,27,06,52,11.70
2010,07,27,06,53,11.70
2010,07,27,06,54,11.70
2010,07,27,06,55,11.80
2010,07,27,06,56,11.80
2010,07,27,06,57,11.80
2010,07,27,06,58,11.90
2010,07,27,06,59,11.90
2010,07,27,07,00,11.90
2010,07,27,07,01,12.00
2010,07,27,07,02,12.00
2010,07,27,07,03,12.10
2010,07,27,07,04,12.10
2010,07,27,07,05,12.10
2010,07,27,07,06,12.20
2010,07,27,07,07,12.20
2010,07,27,07,08,12.20
2010,07,27,07,09,12.30
2010,07,27,07,10,12.30
2010,07,27,07,11,12.30
2010,07,27,07,12,12.40
2010,07,27,07,13,12.40
2010,07,27,07,14,12.40
2010,07,27,07,15,12.40
2010,07,27,07,16,12.50
2010,07,27,07,17,12.50
2010,07,27,07,18,12.60
2010,07,27,07,19,12.60
2010,07,27,07,20,12.60
2010,07,27,07,21,12.60
2010,07,27,07,22,12.60
2010,07,27,07,23,12.70
2010,07,27,07,24,12.70
2010,07,27,07,25,12.70
2010,07,27,07,26,12.70
2010,07,27,07,27,12.70
2010,07,27,07,28,12.70
2010,07,27,07,29,12.70
2010,07,27,07,30,12.80
2010,07,27,07,31,12.80
2010,07,27,07,32,12.80
2010,07,27,07,33,12.80
2010,07,27,07,34,12.80
2010,07,27,07,35,12.80
2010,07,27,07,36,12.80
2010,07,27,07,37,12.80
2010,07,27,07,38,12.80
2010,07,27,07,39,12.80
2010,07,27,07,40,12.80
2010,07,27,07,41,12.80
2010,07,27,07,42,12.70
2010,07,27,07,43,12.70
2010,07,27,07,44,12.70
2010,07,27,07,45,12.60
2010,07,27,07,46,12.60
2010,07,27,07,47,12.60
2010,07,27,07,48,12.60
2010,07,27,07,49,12.60
2010,07,27,07,50,12.60
2010,07,27,07,51,12.70
2010,07,27,07,52,12.70
2010,07,27,07,53,12.70
2010,07,27,07,54,12.70
2010,07,27,07,55,12.80
2010,07,27,07,56,12.80
2010,07,27,07,57,12.80
2010,07,27,07,58,12.80
2010,07,27,07,59,12.80
2010,07,27,08,00,12.90
2010,07,27,08,01,12.90
2010,07,27,08,02,12.90
2010,07,27,08,03,12.90
2010,07,27,08,04,12.90
2010,07,27,08,05,12.90
2010,07,27,08,06,13.00
2010,07,27,08,07,13.00
2010,07,27,08,08,13.00
2010,07,27,08,09,13.00
2010,07,27,08,10,13.00
2010,07,27,08,11,13.10
2010,07,27,08,12,13.10
2010,07,27,08,13,13.10
2010,07,27,08,14,13.20
2010,07,27,08,15,13.20
2010,07,27,08,16,13.20
2010,07,27,08,17,13.20
2010,07,27,08,18,13.20
2010,07,27,08,19,13.20
2010,07,27,08,20,13.20
2010,07,27,08,21,13.20
2010,07,27,08,22,13.20
2010,07,27,08,23,13.20
2010,07,27,08,24,13.10
2010,07,27,08,25,13.10
2010,07,27,08,26,13.10
2010,07,27,08,27,13.00
2010,07,27,08,28,13.00
2010,07,27,08,29,13.00
2010,07,27,08,30,13.00
2010,07,27,08,31,13.00
2010,07,27,08,32,13.00
2010,07,27,08,33,13.00
2010,07,27,08,34,13.10
2010,07,27,08,35,13.10
2010,07,27,08,36,13.10
2010,07,27,08,37,13.10
2010,07,27,08,38,13.10
2010,07,27,08,39,13.10
2010,07,27,08,40,13.10
2010,07,27,08,41,13.10
2010,07,27,08,42,13.10
2010,07,27,08,43,13.10
2010,07,27,08,44,13.10
2010,07,27,08,45,13.10
2010,07,27,08,46,13.10
2010,07,27,08,47,13.20
2010,07,27,08,48,13.20
2010,07,27,08,49,13.20
2010,07,27,08,50,13.10
2010,07,27,08,51,13.10
2010,07,27,08,52,13.10
2010,07,27,08,53,13.10
2010,07,27,08,54,13.00
2010,07,27,08,55,13.00
2010,07,27,08,56,13.00
2010,07,27,08,57,12.90
2010,07,27,08,58,12.80
2010,07,27,08,59,12.70
2010,07,27,09,00,12.70
2010,07,27,09,01,12.70
2010,07,27,09,02,12.70
2010,07,27,09,03,12.70
2010,07,27,09,04,12.70
2010,07,27,09,05,12.70
2010,07,27,09,06,12.80
2010,07,27,09,07,12.80
2010,07,27,09,08,12.80
2010,07,27,09,09,12.80
2010,07,27,09,10,12.80
2010,07,27,09,11,12.90
2010,07,27,09,12,12.90
2010,07,27,09,13,12.80
2010,07,27,09,14,12.80
2010,07,27,09,15,12.80
2010,07,27,09,16,12.80
2010,07,27,09,17,12.70
2010,07,27,09,18,12.70
2010,07,27,09,19,12.70
2010,07,27,09,20,12.70
2010,07,27,09,21,12.70
2010,07,27,09,22,12.60
2010,07,27,09,23,12.60
2010,07,27,09,24,12.60
2010,07,27,09,25,12.70
2010,07,27,09,26,12.70
2010,07,27,09,27,12.60
2010,07,27,09,28,12.60
2010,07,27,09,29,12.60
2010,07,27,09,30,12.60
2010,07,27,09,31,12.70
2010,07,27,09,32,12.70
2010,07,27,09,33,12.70
2010,07,27,09,34,12.70
2010,07,27,09,35,12.70
2010,07,27,09,36,12.80
2010,07,27,09,37,12.80
2010,07,27,09,38,12.80
2010,07,27,09,39,12.90
2010,07,27,09,40,12.90
2010,07,27,09,41,12.90
2010,07,27,09,42,12.90
2010,07,27,09,43,13.00
2010,07,27,09,44,13.00
2010,07,27,09,45,13.00
2010,07,27,09,46,13.00
2010,07,27,09,47,13.00
2010,07,27,09,48,13.00
2010,07,27,09,49,13.00
2010,07,27,09,50,13.10
2010,07,27,09,51,13.00
2010,07,27,09,52,13.00
2010,07,27,09,53,12.90
2010,07,27,09,54,12.90
2010,07,27,09,55,12.90
2010,07,27,09,56,12.90
2010,07,27,09,57,12.90
2010,07,27,09,58,12.90
2010,07,27,09,59,13.00
2010,07,27,10,00,13.00
2010,07,27,10,01,13.10
2010,07,27,10,02,13.10
2010,07,27,10,03,13.10
2010,07,27,10,04,13.00
2010,07,27,10,05,13.00
2010,07,27,10,06,13.00
2010,07,27,10,07,13.00
2010,07,27,10,08,13.10
2010,07,27,10,09,13.10
2010,07,27,10,10,13.20
2010,07,27,10,11,13.20
2010,07,27,10,12,13.30
2010,07,27,10,13,13.40
2010,07,27,10,14,13.50
2010,07,27,10,15,13.60
2010,07,27,10,16,13.70
2010,07,27,10,17,13.70
2010,07,27,10,18,13.70
2010,07,27,10,19,13.70
2010,07,27,10,20,13.70
2010,07,27,10,21,13.70
2010,07,27,10,22,13.60
2010,07,27,10,23,13.60
2010,07,27,10,24,13.60
2010,07,27,10,25,13.60
2010,07,27,10,26,13.50
2010,07,27,10,27,13.50
2010,07,27,10,28,13.50
2010,07,27,10,29,13.50
2010,07,27,10,30,13.50
2010,07,27,10,31,13.40
2010,07,27,10,32,13.30
2010,07,27,10,33,13.20
2010,07,27,10,34,13.20
2010,07,27,10,35,13.20
2010,07,27,10,36,13.20
2010,07,27,10,37,13.20
2010,07,27,10,38,13.20
2010,07,27,10,39,13.20
2010,07,27,10,40,13.20
2010,07,27,10,41,13.20
2010,07,27,10,42,13.10
2010,07,27,10,43,13.10
2010,07,27,10,44,13.10
2010,07,27,10,45,13.20
2010,07,27,10,46,13.20
2010,07,27,10,47,13.20
2010,07,27,10,48,13.30
2010,07,27,10,49,13.30
2010,07,27,10,50,13.30
2010,07,27,10,51,13.40
2010,07,27,10,52,13.40
2010,07,27,10,53,13.40
2010,07,27,10,54,13.40
2010,07,27,10,55,13.30
2010,07,27,10,56,13.30
2010,07,27,10,57,13.30
2010,07,27,10,58,13.30
2010,07,27,10,59,13.30
2010,07,27,11,00,13.30
2010,07,27,11,01,13.40
2010,07,27,11,02,13.40
2010,07,27,11,03,13.40
2010,07,27,11,04,13.50
2010,07,27,11,05,13.50
2010,07,27,11,06,13.60
2010,07,27,11,07,13.60
2010,07,27,11,08,13.70
2010,07,27,11,09,13.70
2010,07,27,11,10,13.80
2010,07,27,11,11,13.80
2010,07,27,11,12,13.80
2010,07,27,11,13,13.80
2010,07,27,11,14,13.80
2010,07,27,11,15,13.80
2010,07,27,11,16,13.90
2010,07,27,11,17,13.90
2010,07,27,11,18,14.00
2010,07,27,11,19,14.00
2010,07,27,11,20,14.10
2010,07,27,11,21,14.10
2010,07,27,11,22,14.10
2010,07,27,11,23,14.10
2010,07,27,11,24,14.10
2010,07,27,11,25,14.10
2010,07,27,11,26,14.10
2010,07,27,11,27,14.10
2010,07,27,11,28,14.10
2010,07,27,11,29,14.10
2010,07,27,11,30,14.10
2010,07,27,11,31,14.10
2010,07,27,11,32,14.10
2010,07,27,11,33,14.10
2010,07,27,11,34,14.10
2010,07,27,11,35,14.10
2010,07,27,11,36,14.20
2010,07,27,11,37,14.20
2010,07,27,11,38,14.20
2010,07,27,11,39,14.20
2010,07,27,11,40,14.20
2010,07,27,11,41,14.20
2010,07,27,11,42,14.20
2010,07,27,11,43,14.20
2010,07,27,11,44,14.20
2010,07,27,11,45,14.20
2010,07,27,11,46,14.20
2010,07,27,11,47,14.30
2010,07,27,11,48,14.30
2010,07,27,11,49,14.30
2010,07,27,11,50,14.30
2010,07,27,11,51,14.30
2010,07,27,11,52,14.40
2010,07,27,11,53,14.40
2010,07,27,11,54,14.40
2010,07,27,11,55,14.40
2010,07,27,11,56,14.30
2010,07,27,11,57,14.30
2010,07,27,11,58,14.40
2010,07,27,11,59,14.40
2010,07,27,12,00,14.40
2010,07,27,12,01,14.40
2010,07,27,12,02,14.50
2010,07,27,12,03,14.50
2010,07,27,12,04,14.50
2010,07,27,12,05,14.60
2010,07,27,12,06,14.60
2010,07,27,12,07,14.60
2010,07,27,12,08,14.70
2010,07,27,12,09,14.70
2010,07,27,12,10,14.70
2010,07,27,12,11,14.80
2010,07,27,12,12,14.80
2010,07,27,12,13,14.80
2010,07,27,12,14,14.90
2010,07,27,12,15,14.90
2010,07,27,12,16,15.00
2010,07,27,12,17,15.10
2010,07,27,12,18,15.10
2010,07,27,12,19,15.20
2010,07,27,12,20,15.20
2010,07,27,12,21,15.20
2010,07,27,12,22,15.20
2010,07,27,12,23,15.20
2010,07,27,12,24,15.30
2010,07,27,12,25,15.30
2010,07,27,12,26,15.30
2010,07,27,12,27,15.30
2010,07,27,12,28,15.30
2010,07,27,12,29,15.30
2010,07,27,12,30,15.20
2010,07,27,12,31,15.20
2010,07,27,12,32,15.20
2010,07,27,12,33,15.20
2010,07,27,12,34,15.20
2010,07,27,12,35,15.30
2010,07,27,12,36,15.30
2010,07,27,12,37,15.40
2010,07,27,12,38,15.40
2010,07,27,12,39,15.50
2010,07,27,12,40,15.60
2010,07,27,12,41,15.70
2010,07,27,12,42,15.80
2010,07,27,12,43,15.80
2010,07,27,12,44,16.00
2010,07,27,12,45,16.10
2010,07,27,12,46,16.20
2010,07,27,12,47,16.30
2010,07,27,12,48,16.40
2010,07,27,12,49,16.50
2010,07,27,12,50,16.70
2010,07,27,12,51,16.80
2010,07,27,12,52,16.90
2010,07,27,12,53,17.00
2010,07,27,12,54,17.10
2010,07,27,12,55,17.20
2010,07,27,12,56,17.20
2010,07,27,12,57,17.10
2010,07,27,12,58,17.10
2010,07,27,12,59,17.00
2010,07,27,13,00,16.90
2010,07,27,13,01,16.80
2010,07,27,13,02,16.80
2010,07,27,13,03,16.80
2010,07,27,13,04,16.80
2010,07,27,13,05,16.70
2010,07,27,13,06,16.70
2010,07,27,13,07,16.70
2010,07,27,13,08,16.70
2010,07,27,13,09,16.80
2010,07,27,13,10,16.80
2010,07,27,13,11,16.80
2010,07,27,13,12,16.90
2010,07,27,13,13,16.90
2010,07,27,13,14,16.90
2010,07,27,13,15,16.90
2010,07,27,13,16,17.00
2010,07,27,13,17,17.00
2010,07,27,13,18,17.10
2010,07,27,13,19,17.10
2010,07,27,13,20,17.10
2010,07,27,13,21,17.10
2010,07,27,13,22,17.10
2010,07,27,13,23,17.10
2010,07,27,13,24,17.10
2010,07,27,13,25,17.10
2010,07,27,13,26,17.10
2010,07,27,13,27,17.10
2010,07,27,13,28,17.10
2010,07,27,13,29,17.10
2010,07,27,13,30,17.20
2010,07,27,13,31,17.20
2010,07,27,13,32,17.20
2010,07,27,13,33,17.10
2010,07,27,13,34,17.10
2010,07,27,13,35,17.10
2010,07,27,13,36,17.10
2010,07,27,13,37,17.10
2010,07,27,13,38,17.10
2010,07,27,13,39,17.10
2010,07,27,13,40,17.10
2010,07,27,13,41,17.10
2010,07,27,13,42,17.20
2010,07,27,13,43,17.20
2010,07,27,13,44,17.30
2010,07,27,13,45,17.30
2010,07,27,13,46,17.30
2010,07,27,13,47,17.40
2010,07,27,13,48,17.40
2010,07,27,13,49,17.40
2010,07,27,13,50,17.50
2010,07,27,13,51,17.50
2010,07,27,13,52,17.60
2010,07,27,13,53,17.50
2010,07,27,13,54,17.50
2010,07,27,13,55,17.50
2010,07,27,13,56,17.50
2010,07,27,13,57,17.50
2010,07,27,13,58,17.50
2010,07,27,13,59,17.50
2010,07,27,14,00,17.60
2010,07,27,14,01,17.60
2010,07,27,14,02,17.70
2010,07,27,14,03,17.80
2010,07,27,14,04,17.90
2010,07,27,14,05,18.00
2010,07,27,14,06,18.00
2010,07,27,14,07,18.10
2010,07,27,14,08,18.10
2010,07,27,14,09,18.10
2010,07,27,14,10,18.10
2010,07,27,14,11,18.10
2010,07,27,14,12,18.10
2010,07,27,14,13,18.10
2010,07,27,14,14,18.10
2010,07,27,14,15,18.00
2010,07,27,14,16,18.00
2010,07,27,14,17,18.00
2010,07,27,14,18,18.00
2010,07,27,14,19,18.10
2010,07,27,14,20,18.10
2010,07,27,14,21,18.20
2010,07,27,14,22,18.30
2010,07,27,14,23,18.30
2010,07,27,14,24,18.30
2010,07,27,14,25,18.30
2010,07,27,14,26,18.30
2010,07,27,14,27,18.30
2010,07,27,14,28,18.40
2010,07,27,14,29,18.40
2010,07,27,14,30,18.50
2010,07,27,14,31,18.60
2010,07,27,14,32,18.50
2010,07,27,14,33,18.50
2010,07,27,14,34,18.40
2010,07,27,14,35,18.40
2010,07,27,14,36,18.30
2010,07,27,14,37,18.30
2010,07,27,14,38,18.30
2010,07,27,14,39,18.30
2010,07,27,14,40,18.20
2010,07,27,14,41,18.20
2010,07,27,14,42,18.20
2010,07,27,14,43,18.30
2010,07,27,14,44,18.30
2010,07,27,14,45,18.40
2010,07,27,14,46,18.50
2010,07,27,14,47,18.60
2010,07,27,14,48,18.70
2010,07,27,14,49,18.70
2010,07,27,14,50,18.60
2010,07,27,14,51,18.60
2010,07,27,14,52,18.50
2010,07,27,14,53,18.50
2010,07,27,14,54,18.40
2010,07,27,14,55,18.30
2010,07,27,14,56,18.30
2010,07,27,14,57,18.20
2010,07,27,14,58,18.20
2010,07,27,14,59,18.20
2010,07,27,15,00,18.20
2010,07,27,15,01,18.30
2010,07,27,15,02,18.40
2010,07,27,15,03,18.50
2010,07,27,15,04,18.60
2010,07,27,15,05,18.80
2010,07,27,15,06,18.90
2010,07,27,15,07,19.00
2010,07,27,15,08,19.10
2010,07,27,15,09,19.20
2010,07,27,15,10,19.30
2010,07,27,15,11,19.40
2010,07,27,15,12,19.50
2010,07,27,15,13,19.60
2010,07,27,15,14,19.70
2010,07,27,15,15,19.70
2010,07,27,15,16,19.80
2010,07,27,15,17,19.90
2010,07,27,15,18,19.90
2010,07,27,15,19,20.00
2010,07,27,15,20,20.00
2010,07,27,15,21,20.00
2010,07,27,15,22,19.90
2010,07,27,15,23,19.90
2010,07,27,15,24,19.90
2010,07,27,15,25,19.90
2010,07,27,15,26,19.90
2010,07,27,15,27,19.90
2010,07,27,15,28,19.90
2010,07,27,15,29,19.90
2010,07,27,15,30,20.00
2010,07,27,15,31,20.00
2010,07,27,15,32,20.00
2010,07,27,15,33,20.10
2010,07,27,15,34,20.10
2010,07,27,15,35,20.20
2010,07,27,15,36,20.20
2010,07,27,15,37,20.20
2010,07,27,15,38,20.20
2010,07,27,15,39,20.10
2010,07,27,15,40,20.00
2010,07,27,15,41,19.90
2010,07,27,15,42,19.80
2010,07,27,15,43,19.70
2010,07,27,15,44,19.60
2010,07,27,15,45,19.50
2010,07,27,15,46,19.40
2010,07,27,15,47,19.40
2010,07,27,15,48,19.30
2010,07,27,15,49,19.30
2010,07,27,15,50,19.20
2010,07,27,15,51,19.20
2010,07,27,15,52,19.20
2010,07,27,15,53,19.20
2010,07,27,15,54,19.10
2010,07,27,15,55,19.10
2010,07,27,15,56,19.10
2010,07,27,15,57,19.10
2010,07,27,15,58,19.10
2010,07,27,15,59,19.10
2010,07,27,16,00,19.20
2010,07,27,16,01,19.20
2010,07,27,16,02,19.30
2010,07,27,16,03,19.40
2010,07,27,16,04,19.50
2010,07,27,16,05,19.50
2010,07,27,16,06,19.60
2010,07,27,16,07,19.70
2010,07,27,16,08,19.80
2010,07,27,16,09,19.80
2010,07,27,16,10,19.90
2010,07,27,16,11,19.90
2010,07,27,16,12,19.90
2010,07,27,16,13,19.90
2010,07,27,16,14,19.80
2010,07,27,16,15,19.70
2010,07,27,16,16,19.70
2010,07,27,16,17,19.60
2010,07,27,16,18,19.40
2010,07,27,16,19,19.30
2010,07,27,16,20,19.20
2010,07,27,16,21,19.10
2010,07,27,16,22,19.00
2010,07,27,16,23,18.90
2010,07,27,16,24,18.80
2010,07,27,16,25,18.70
2010,07,27,16,26,18.70
2010,07,27,16,27,18.60
2010,07,27,16,28,18.50
2010,07,27,16,29,18.50
2010,07,27,16,30,18.50
2010,07,27,16,31,18.50
2010,07,27,16,32,18.40
2010,07,27,16,33,18.40
2010,07,27,16,34,18.40
2010,07,27,16,35,18.30
2010,07,27,16,36,18.30
2010,07,27,16,37,18.20
2010,07,27,16,38,18.10
2010,07,27,16,39,18.00
2010,07,27,16,40,18.00
2010,07,27,16,41,17.90
2010,07,27,16,42,17.80
2010,07,27,16,43,17.80
2010,07,27,16,44,17.80
2010,07,27,16,45,17.80
2010,07,27,16,46,17.80
2010,07,27,16,47,17.80
2010,07,27,16,48,17.80
2010,07,27,16,49,17.90
2010,07,27,16,50,17.90
2010,07,27,16,51,18.00
2010,07,27,16,52,18.00
2010,07,27,16,53,18.10
2010,07,27,16,54,18.10
2010,07,27,16,55,18.20
2010,07,27,16,56,18.30
2010,07,27,16,57,18.30
2010,07,27,16,58,18.40
2010,07,27,16,59,18.40
2010,07,27,17,00,18.40
2010,07,27,17,01,18.50
2010,07,27,17,02,18.50
2010,07,27,17,03,18.60
2010,07,27,17,04,18.70
2010,07,27,17,05,18.80
2010,07,27,17,06,18.90
2010,07,27,17,07,19.00
2010,07,27,17,08,19.10
2010,07,27,17,09,19.20
2010,07,27,17,10,19.30
2010,07,27,17,11,19.30
2010,07,27,17,12,19.40
2010,07,27,17,13,19.40
2010,07,27,17,14,19.50
2010,07,27,17,15,19.60
2010,07,27,17,16,19.60
2010,07,27,17,17,19.70
2010,07,27,17,18,19.70
2010,07,27,17,19,19.70